STARLINK-32940, 63568

Orbit data source: Space-Track

STARLINK-32940, 63568 is a payload satellite owned by SpaceX/Seattle (US) in LEO that was launched on Sun, 13 Apr 2025 UTC via an FALCON 9 launch vehicle from the Air Force Eastern Test Range (AFETR). Payload-class satellites include a variety of spacecraft equipped with specific instruments for various scientific and technological missions. These include communications satellites like Starlink; space stations such as the ISS; scientific satellites like the Hubble; Earth observation satellites from companies like Planet Labs, Umbra, and HawkEye 360; GPS; miniature CubeSats for education and research; and military/defense satellites.

Loading next visibility...
Identifier
63568, 2025-075W
Orbit
LEO
Last TLE update
3 hours ago
Origin
Manufacturer
SpaceX/Seattle
Mission
Operational spacecraft
Bus & Motor
STARLINK V2M, Unknown motor
Mass
730 kg wet, ~700 kg dry
Launch date (UTC)
2025-04-13 (4 weeks ago)
Launch vehicle
FALCON 9
Launch site
Air Force Eastern Test Range (AFETR)
Object type
Payload
Rocket body
Debris
Shape & HBR
Unknown
Radar Cross Section
Large (>1 m²)

Expand to show TLE details & history

TLE from 3 hours ago
0 STARLINK-32940
1 63568U 25075W   25129.25002315  .00017443  00000-0  30258-3 0  9994
2 63568  42.9995 192.2761 0001314 259.9870 332.4970 15.50570555  5332
Epoch: 2025-05-09T06:00Z
Definitive object data (Epoch: 2025-05-09T06:00:02Z)
Latitude
-32.92218°
Longitude
98.6272°
Altitude
423.421 km
Speed
7.658 km/s
True Right ascension
03h 43m 46s
True Declination
-32° 45' 28"
Sunlit
Object was in daylight at TLE epoch
Visualization TLE readout
Latitude
-40.65624°
Longitude
120.51129°
Altitude
426.464 km
Speed
7.656 km/s
Apparent Right ascension
05h 15m 29s
Apparent Declination
-40° 07' 10"
Sunlit
Object is in daylight
Visualization observer readout
Local Sidereal Time
17:19:54
Azimuth
103.89° ESE
Elevation
-89.131°
Doppler factor
1
Orbital elements
Apogee altitude
417.917 km
Perigee altitude
416.131 km
Semi-major axis
6,795.161 km
Eccentricity
0.0001314
Inclination
42.9995°
RAAN
192.2761°
Arg. of periapsis
259.987°
True anomaly
332.49005°
Mean anomaly
332.497°
Eccentric anomaly
332.49352°
Mean motion
3.87475 °/min
BSTAR
0.00030258
Orbital period
92.91 mins
Loading maneuver chart data...
Loading SW <> Apogee altitude chart data...
Loading historical data...
Loading historical data...
Loading historical data...
Loading historical data...
Loading historical data...
Loading historical data...
Loading historical data...

STARLINK-32940 Visibility forecast

Observer location: undefined°, undefined°

Span
Click to sort rows by Start time (UTC) header in descending order
Start Az.
Max El. time (UTC)
Max El. Az.
Max El.
End time (UTC)
End Az.
6 mins2025-05-09 09:56:37.587Z276.123° WNW2025-05-09 09:59:37.587Z339.56° N37.481°2025-05-09 10:02:37.587Z69.201° E
5 mins2025-05-09 11:35:37.587Z297.236° NW2025-05-09 11:37:37.587Z26.218° NE40.614°2025-05-09 11:40:37.587Z92.197° ESE
4 mins2025-05-09 13:13:37.587Z255.333° W2025-05-09 13:14:37.587Z218.673° SW31.983°2025-05-09 13:17:37.587Z139.642° SSE
5 mins2025-05-10 07:30:37.587Z215.976° SW2025-05-10 07:32:37.587Z153.489° SSE33.75°2025-05-10 07:35:37.587Z81.783° E
|